| time (UTC) | temp F | wind direction | speed MPH | gust MPH | rain 1hr in | rain 24hr in | rain mn in | humidity % | barometer mb |
| 20260831041941 | 76 | 119 | 0.0 | 2.0 | 0.00 | 0.00 | 0.00 | 86 | 1006.4 |
| 20260831041440 | 76 | 153 | 1.0 | 4.0 | 0.00 | 0.00 | 0.00 | 85 | 1006.4 |
| 20260831040932 | 76 | 155 | 1.0 | 6.0 | 0.00 | 0.00 | 0.00 | 85 | 1006.4 |
| 20260831040430 | 76 | 143 | 1.0 | 6.0 | 0.00 | 0.00 | 0.00 | 85 | 1006.5 |
| 20260831035920 | 76 | 157 | 2.0 | 7.0 | 0.00 | 0.00 | 0.00 | 85 | 1006.4 |
| 20260831035414 | 76 | 157 | 2.0 | 7.0 | 0.00 | 0.00 | 0.00 | 85 | 1006.3 |
| 20260831034914 | 77 | 146 | 1.0 | 7.0 | 0.00 | 0.00 | 0.00 | 84 | 1006.3 |
| 20260831034406 | 77 | 155 | 2.0 | 7.0 | 0.00 | 0.00 | 0.00 | 84 | 1006.2 |
| 20260831033908 | 77 | 146 | 2.0 | 8.0 | 0.00 | 0.00 | 0.00 | 84 | 1006.3 |
| 20260831033408 | 77 | 155 | 4.0 | 10.0 | 0.00 | 0.00 | 0.00 | 83 | 1006.3 |
| 20260831032858 | 77 | 125 | 5.0 | 10.0 | 0.00 | 0.00 | 0.00 | 83 | 1006.3 |
| 20260831032400 | 77 | 155 | 3.0 | 9.0 | 0.00 | 0.00 | 0.00 | 83 | 1006.4 |
| 20260831031858 | 78 | 162 | 3.0 | 9.0 | 0.00 | 0.00 | 0.00 | 83 | 1006.3 |
| 20260831031358 | 78 | 155 | 3.0 | 9.0 | 0.00 | 0.00 | 0.00 | 83 | 1006.3 |
| 20260831030900 | 78 | 134 | 3.0 | 10.0 | 0.00 | 0.00 | 0.00 | 82 | 1006.2 |
| 20260831030352 | 78 | 153 | 4.0 | 10.0 | 0.00 | 0.00 | 0.00 | 82 | 1006.2 |
| 20260831025853 | 78 | 149 | 3.0 | 10.0 | 0.00 | 0.00 | 0.00 | 82 | 1006.1 |
| 20260831025352 | 78 | 158 | 2.0 | 8.0 | 0.00 | 0.00 | 0.00 | 81 | 1006.1 |
| 20260831024852 | 78 | 155 | 2.0 | 8.0 | 0.00 | 0.00 | 0.00 | 81 | 1006.0 |
| 20260831024342 | 79 | 144 | 2.0 | 9.0 | 0.00 | 0.00 | 0.00 | 81 | 1006.0 |
| 20260831023836 | 79 | 171 | 3.0 | 11.0 | 0.00 | 0.00 | 0.00 | 80 | 1006.1 |
| 20260831023334 | 79 | 148 | 4.0 | 11.0 | 0.00 | 0.00 | 0.00 | 80 | 1006.1 |
| 20260831022831 | 79 | 160 | 4.0 | 11.0 | 0.00 | 0.00 | 0.00 | 80 | 1006.1 |
| 20260831022328 | 79 | 154 | 5.0 | 13.0 | 0.00 | 0.00 | 0.00 | 79 | 1006.2 |
| 20260831022046 | 79 | 147 | 5.0 | 17.0 | 0.00 | 0.00 | 0.00 | 79 | 1006.2 |
| 20260831021324 | 79 | 152 | 5.0 | 17.0 | 0.00 | 0.00 | 0.00 | 79 | 1006.1 |
| 20260831020824 | 79 | 135 | 6.0 | 19.0 | 0.00 | 0.00 | 0.00 | 79 | 1006.1 |
| 20260831020319 | 79 | 180 | 5.0 | 19.0 | 0.00 | 0.00 | 0.00 | 80 | 1005.9 |
| 20260831015818 | 79 | 177 | 3.0 | 12.0 | 0.00 | 0.00 | 0.00 | 82 | 1005.9 |
| 20260831015542 | 78 | 107 | 3.0 | 10.0 | 0.00 | 0.00 | 0.00 | 84 | 1005.8 |
| 20260831014811 | 78 | 155 | 2.0 | 10.0 | 0.00 | 0.00 | 0.00 | 85 | 1005.9 |
| 20260831014307 | 79 | 178 | 1.0 | 6.0 | 0.00 | 0.00 | 0.00 | 86 | 1005.8 |
| 20260831014032 | 79 | 114 | 0.0 | 1.0 | 0.00 | 0.00 | 0.00 | 86 | 1005.8 |
| 20260831013305 | 79 | 114 | 0.0 | 2.0 | 0.00 | 0.00 | 0.00 | 85 | 1005.7 |
| 20260831012803 | 79 | 114 | 0.0 | 2.0 | 0.00 | 0.00 | 0.00 | 85 | 1005.8 |
| 20260831012244 | 80 | 61 | 0.0 | 1.0 | 0.00 | 0.00 | 0.00 | 85 | 1005.8 |
| 20260831011742 | 80 | 61 | 0.0 | 1.0 | 0.00 | 0.00 | 0.00 | 84 | 1005.6 |
| 20260831011236 | 80 | 58 | 0.0 | 1.0 | 0.00 | 0.00 | 0.00 | 84 | 1005.5 |
| 20260831010955 | 80 | 57 | 0.0 | 1.0 | 0.00 | 0.00 | 0.00 | 84 | 1005.6 |
| 20260831010223 | 80 | 57 | 0.0 | 2.0 | 0.00 | 0.00 | 0.00 | 84 | 1005.5 |
| 20260831005721 | 80 | 58 | 0.0 | 2.0 | 0.00 | 0.00 | 0.00 | 84 | 1005.5 |
| 20260831005223 | 81 | 61 | 0.0 | 1.0 | 0.00 | 0.00 | 0.00 | 84 | 1005.5 |
| 20260831004935 | 81 | 61 | 0.0 | 1.0 | 0.00 | 0.00 | 0.00 | 84 | 1005.5 |
| 20260831004152 | 81 | 61 | 0.0 | 1.0 | 0.00 | 0.00 | 0.00 | 83 | 1005.4 |
| 20260831003633 | 81 | 61 | 0.0 | 1.0 | 0.00 | 0.00 | 0.00 | 83 | 1005.6 |
| 20260831003135 | 81 | 61 | 0.0 | 2.0 | 0.00 | 0.00 | 0.00 | 83 | 1005.7 |
| 20260831002830 | 82 | 61 | 1.0 | 3.0 | 0.00 | 0.00 | 0.00 | 83 | 1005.7 |
| 20260831002326 | 82 | 61 | 0.0 | 3.0 | 0.00 | 0.00 | 0.00 | 82 | 1005.7 |
| 20260831001831 | 82 | 96 | 0.0 | 1.0 | 0.00 | 0.00 | 0.00 | 83 | 1005.6 |
| 20260831001102 | 82 | 96 | 0.0 | 1.0 | 0.00 | 0.00 | 0.00 | 82 | 1005.6 |
| 20260831000601 | 82 | 96 | 0.0 | 3.0 | 0.00 | 0.00 | 0.00 | 82 | 1005.6 |
| 20260831000321 | 82 | 97 | 1.0 | 3.0 | 0.00 | 0.00 | 0.00 | 81 | 1005.6 |
| 20260830235559 | 83 | 275 | 0.0 | 2.0 | 0.00 | 0.00 | 0.00 | 82 | 1005.5 |
| 20260830235100 | 83 | 334 | 1.0 | 2.0 | 0.00 | 0.00 | 0.00 | 81 | 1005.5 |
| 20260830234601 | 83 | 341 | 1.0 | 3.0 | 0.00 | 0.00 | 0.00 | 81 | 1005.6 |
| 20260830234056 | 83 | 5 | 1.0 | 3.0 | 0.00 | 0.00 | 0.00 | 81 | 1005.5 |
| 20260830233557 | 83 | 355 | 1.0 | 2.0 | 0.00 | 0.00 | 0.00 | 80 | 1005.6 |
| 20260830233057 | 83 | 351 | 1.0 | 4.0 | 0.00 | 0.00 | 0.00 | 80 | 1005.7 |
| 20260830232550 | 83 | 355 | 1.0 | 4.0 | 0.00 | 0.00 | 0.00 | 79 | 1005.7 |
| 20260830232050 | 83 | 77 | 1.0 | 4.0 | 0.00 | 0.00 | 0.00 | 79 | 1005.6 |
| 20260830231542 | 83 | 77 | 1.0 | 4.0 | 0.00 | 0.00 | 0.00 | 79 | 1005.5 |
| 20260830231042 | 84 | 73 | 1.0 | 4.0 | 0.00 | 0.00 | 0.00 | 79 | 1005.7 |
| 20260830230532 | 84 | 23 | 2.0 | 4.0 | 0.00 | 0.00 | 0.00 | 78 | 1005.8 |
| 20260830230258 | 84 | 44 | 1.0 | 4.0 | 0.00 | 0.00 | 0.00 | 78 | 1005.6 |
| 20260830225756 | 84 | 53 | 1.0 | 6.0 | 0.00 | 0.00 | 0.00 | 77 | 1005.6 |
| 20260830225030 | 85 | 58 | 1.0 | 6.0 | 0.00 | 0.00 | 0.00 | 76 | 1005.6 |
| 20260830224531 | 85 | 32 | 1.0 | 4.0 | 0.00 | 0.00 | 0.00 | 77 | 1005.6 |
| 20260830224334 | 85 | 5 | 1.0 | 3.0 | 0.00 | 0.00 | 0.00 | 77 | 1005.6 |
| 20260830223014 | 85 | 75 | 1.0 | 4.0 | 0.00 | 0.00 | 0.00 | 78 | 1005.7 |
| 20260830222509 | 85 | 113 | 1.0 | 3.0 | 0.00 | 0.00 | 0.00 | 76 | 1005.6 |
| 20260830222006 | 85 | 33 | 1.0 | 5.0 | 0.00 | 0.00 | 0.00 | 76 | 1005.5 |
| 20260830221953 | 85 | 49 | 1.0 | 5.0 | 0.00 | 0.00 | 0.00 | 75 | 1005.7 |
| 20260830221221 | 85 | 59 | 1.0 | 4.0 | 0.00 | 0.00 | 0.00 | 75 | 1005.8 |
| 20260830220459 | 86 | 54 | 1.0 | 4.0 | 0.00 | 0.00 | 0.00 | 75 | 1005.8 |
| 20260830220001 | 85 | 186 | 1.0 | 3.0 | 0.00 | 0.00 | 0.00 | 75 | 1005.8 |
| 20260830215456 | 85 | 242 | 1.0 | 3.0 | 0.00 | 0.00 | 0.00 | 76 | 1005.8 |
| 20260830214956 | 85 | 168 | 1.0 | 4.0 | 0.00 | 0.00 | 0.00 | 76 | 1005.9 |
| 20260830214452 | 85 | 219 | 1.0 | 4.0 | 0.00 | 0.00 | 0.00 | 77 | 1005.9 |
| 20260830213947 | 84 | 223 | 1.0 | 5.0 | 0.00 | 0.00 | 0.00 | 78 | 1005.9 |
| 20260830213444 | 84 | 229 | 1.0 | 5.0 | 0.00 | 0.00 | 0.00 | 77 | 1006.1 |
| 20260830212941 | 84 | 82 | 1.0 | 4.0 | 0.00 | 0.00 | 0.00 | 79 | 1006.2 |
| 20260830212440 | 84 | 16 | 1.0 | 5.0 | 0.00 | 0.00 | 0.00 | 78 | 1006.1 |
| 20260830212201 | 83 | 135 | 2.0 | 7.0 | 0.00 | 0.00 | 0.00 | 79 | 1006.3 |
| 20260830211436 | 83 | 135 | 1.0 | 7.0 | 0.00 | 0.00 | 0.00 | 79 | 1006.3 |
| 20260830210926 | 83 | 116 | 1.0 | 3.0 | 0.00 | 0.00 | 0.00 | 78 | 1006.4 |
| 20260830210648 | 83 | 155 | 1.0 | 3.0 | 0.00 | 0.00 | 0.00 | 81 | 1006.3 |
| 20260830205922 | 82 | 182 | 1.0 | 5.0 | 0.00 | 0.00 | 0.00 | 81 | 1006.3 |
| 20260830205419 | 82 | 184 | 1.0 | 5.0 | 0.00 | 0.00 | 0.00 | 81 | 1006.3 |
| 20260830204918 | 82 | 136 | 1.0 | 4.0 | 0.00 | 0.00 | 0.00 | 81 | 1006.4 |
| 20260830204418 | 81 | 120 | 1.0 | 5.0 | 0.00 | 0.00 | 0.00 | 81 | 1006.3 |
| 20260830203913 | 81 | 109 | 1.0 | 6.0 | 0.00 | 0.00 | 0.00 | 81 | 1006.4 |
| 20260830203412 | 82 | 148 | 1.0 | 6.0 | 0.00 | 0.00 | 0.00 | 81 | 1006.3 |
| 20260830202911 | 82 | 148 | 2.0 | 6.0 | 0.00 | 0.00 | 0.00 | 80 | 1006.3 |
| 20260830202410 | 82 | 19 | 2.0 | 6.0 | 0.00 | 0.00 | 0.00 | 80 | 1006.2 |
| 20260830201908 | 82 | 182 | 1.0 | 4.0 | 0.00 | 0.00 | 0.00 | 80 | 1006.2 |
| 20260830201405 | 82 | 193 | 2.0 | 7.0 | 0.00 | 0.00 | 0.00 | 80 | 1006.2 |
| 20260830200904 | 82 | 157 | 2.0 | 7.0 | 0.00 | 0.00 | 0.00 | 79 | 1006.2 |
| 20260830200403 | 83 | 93 | 2.0 | 6.0 | 0.00 | 0.00 | 0.00 | 79 | 1006.2 |
| 20260830195903 | 83 | 113 | 2.0 | 6.0 | 0.00 | 0.00 | 0.00 | 79 | 1006.4 |
| 20260830195401 | 83 | 113 | 2.0 | 5.0 | 0.00 | 0.00 | 0.00 | 80 | 1006.3 |
| 20260830194901 | 82 | 155 | 2.0 | 9.0 | 0.00 | 0.00 | 0.00 | 82 | 1006.3 |
| 20260830194353 | 81 | 58 | 2.0 | 9.0 | 0.00 | 0.00 | 0.00 | 82 | 1006.2 |
| 20260830193849 | 80 | 47 | 2.0 | 4.0 | 0.00 | 0.00 | 0.00 | 83 | 1006.4 |
| 20260830193608 | 80 | 329 | 2.0 | 6.0 | 0.00 | 0.00 | 0.00 | 82 | 1006.8 |
| 20260830192846 | 80 | 79 | 2.0 | 6.0 | 0.00 | 0.00 | 0.00 | 83 | 1006.9 |
| 20260830192342 | 79 | 59 | 2.0 | 6.0 | 0.00 | 0.00 | 0.00 | 83 | 1007.0 |
| 20260830191839 | 79 | 267 | 2.0 | 6.0 | 0.00 | 0.00 | 0.00 | 84 | 1007.0 |
| 20260830191339 | 79 | 331 | 2.0 | 5.0 | 0.00 | 0.00 | 0.00 | 83 | 1007.1 |
| 20260830190839 | 79 | 29 | 1.0 | 5.0 | 0.00 | 0.00 | 0.00 | 84 | 1007.3 |
| 20260830190821 | 79 | 47 | 1.0 | 7.0 | 0.00 | 0.00 | 0.00 | 83 | 1007.3 |
| 20260830185825 | 79 | 349 | 1.0 | 7.0 | 0.00 | 0.00 | 0.00 | 84 | 1007.3 |
| 20260830185812 | 78 | 34 | 1.0 | 5.0 | 0.00 | 0.00 | 0.00 | 84 | 1007.3 |
| 20260830184816 | 78 | 132 | 2.0 | 9.0 | 0.00 | 0.00 | 0.00 | 84 | 1007.3 |
| 20260830184315 | 78 | 316 | 1.0 | 9.0 | 0.00 | 0.00 | 0.00 | 85 | 1007.3 |
| 20260830184037 | 77 | 149 | 1.0 | 4.0 | 0.00 | 0.00 | 0.00 | 85 | 1007.3 |
| 20260830183313 | 77 | 143 | 1.0 | 4.0 | 0.00 | 0.00 | 0.00 | 85 | 1007.7 |
| 20260830182814 | 77 | 115 | 1.0 | 8.0 | 0.00 | 0.00 | 0.00 | 85 | 1007.3 |
| 20260830182311 | 77 | 71 | 1.0 | 8.0 | 0.00 | 0.00 | 0.00 | 85 | 1007.2 |
| 20260830181811 | 77 | 219 | 1.0 | 4.0 | 0.00 | 0.00 | 0.00 | 85 | 1007.4 |
| 20260830181310 | 77 | 175 | 1.0 | 3.0 | 0.00 | 0.00 | 0.00 | 86 | 1007.7 |
| 20260830180812 | 76 | 150 | 1.0 | 3.0 | 0.00 | 0.00 | 0.00 | 86 | 1007.7 |
| 20260830180306 | 76 | 150 | 0.0 | 2.0 | 0.00 | 0.00 | 0.00 | 86 | 1007.7 |
| 20260830175802 | 76 | 150 | 0.0 | 2.0 | 0.00 | 0.00 | 0.00 | 86 | 1007.8 |
| 20260830175524 | 76 | 150 | 1.0 | 6.0 | 0.00 | 0.00 | 0.00 | 86 | 1007.8 |
| 20260830175007 | 76 | 109 | 1.0 | 6.0 | 0.00 | 0.00 | 0.00 | 86 | 1007.7 |
| 20260830174246 | 76 | 173 | 1.0 | 4.0 | 0.00 | 0.00 | 0.00 | 86 | 1007.8 |
| 20260830173743 | 76 | 174 | 1.0 | 4.0 | 0.00 | 0.00 | 0.00 | 86 | 1007.9 |
| 20260830173233 | 76 | 173 | 1.0 | 4.0 | 0.00 | 0.00 | 0.00 | 85 | 1007.9 |
| 20260830172724 | 76 | 173 | 1.0 | 5.0 | 0.00 | 0.00 | 0.00 | 86 | 1007.9 |
| 20260830172223 | 76 | 198 | 1.0 | 5.0 | 0.00 | 0.00 | 0.00 | 86 | 1008.0 |
| 20260830171721 | 76 | 11 | 1.0 | 5.0 | 0.00 | 0.00 | 0.00 | 86 | 1007.9 |
| 20260830171222 | 76 | 89 | 1.0 | 5.0 | 0.00 | 0.00 | 0.00 | 86 | 1007.8 |
| 20260830170717 | 76 | 18 | 1.0 | 5.0 | 0.00 | 0.00 | 0.00 | 86 | 1007.7 |
| 20260830170219 | 76 | 173 | 2.0 | 8.0 | 0.00 | 0.00 | 0.00 | 86 | 1007.4 |
| 20260830165718 | 76 | 48 | 2.0 | 8.0 | 0.00 | 0.00 | 0.00 | 85 | 1007.3 |
| 20260830165215 | 76 | 37 | 1.0 | 8.0 | 0.00 | 0.00 | 0.00 | 86 | 1007.2 |
| 20260830164712 | 75 | 98 | 1.0 | 4.0 | 0.00 | 0.00 | 0.00 | 86 | 1007.6 |
| 20260830164158 | 75 | 270 | 1.0 | 4.0 | 0.00 | 0.00 | 0.00 | 86 | 1007.6 |
| 20260830163656 | 75 | 90 | 1.0 | 6.0 | 0.00 | 0.00 | 0.00 | 86 | 1007.4 |
| 20260830163148 | 75 | 54 | 1.0 | 6.0 | 0.00 | 0.00 | 0.00 | 86 | 1007.4 |
| 20260830162642 | 75 | 14 | 2.0 | 5.0 | 0.00 | 0.00 | 0.00 | 86 | 1007.3 |
| 20260830162401 | 75 | 59 | 2.0 | 5.0 | 0.00 | 0.00 | 0.00 | 86 | 1007.4 |
| 20260830161635 | 75 | 5 | 1.0 | 5.0 | 0.00 | 0.00 | 0.00 | 87 | 1007.3 |
| 20260830161134 | 75 | 42 | 1.0 | 5.0 | 0.00 | 0.00 | 0.00 | 87 | 1007.2 |
| 20260830160632 | 74 | 329 | 1.0 | 5.0 | 0.00 | 0.00 | 0.00 | 87 | 1007.3 |
| 20260830160127 | 74 | 311 | 1.0 | 5.0 | 0.00 | 0.00 | 0.00 | 87 | 1007.2 |
| 20260830155625 | 74 | 20 | 1.0 | 3.0 | 0.00 | 0.00 | 0.00 | 87 | 1007.3 |
| 20260830155334 | 74 | 17 | 1.0 | 4.0 | 0.00 | 0.00 | 0.00 | 87 | 1007.6 |
| 20260830154831 | 74 | 34 | 1.0 | 4.0 | 0.00 | 0.00 | 0.00 | 88 | 1007.6 |
| 20260830154110 | 74 | 9 | 1.0 | 4.0 | 0.00 | 0.00 | 0.00 | 88 | 1007.4 |
| 20260830153613 | 74 | 67 | 1.0 | 4.0 | 0.00 | 0.00 | 0.00 | 88 | 1007.2 |
| 20260830153110 | 73 | 345 | 2.0 | 8.0 | 0.00 | 0.00 | 0.00 | 88 | 1007.3 |
| 20260830152602 | 73 | 47 | 1.0 | 8.0 | 0.00 | 0.00 | 0.00 | 89 | 1007.6 |
| 20260830152544 | 73 | 151 | 2.0 | 8.0 | 0.00 | 0.00 | 0.00 | 89 | 1007.6 |
| 20260830151552 | 72 | 32 | 3.0 | 8.0 | 0.00 | 0.00 | 0.00 | 89 | 1007.1 |
| 20260830151047 | 72 | 346 | 2.0 | 8.0 | 0.00 | 0.00 | 0.00 | 89 | 1006.9 |
| 20260830150548 | 72 | 39 | 2.0 | 8.0 | 0.00 | 0.00 | 0.00 | 89 | 1006.9 |
| 20260830150042 | 72 | 322 | 1.0 | 6.0 | 0.00 | 0.01 | 0.00 | 90 | 1007.1 |
| 20260830145543 | 71 | 40 | 1.0 | 6.0 | 0.00 | 0.01 | 0.00 | 91 | 1007.3 |
| 20260830145042 | 71 | 24 | 1.0 | 6.0 | 0.00 | 0.01 | 0.00 | 91 | 1007.3 |
| 20260830144538 | 71 | 22 | 1.0 | 4.0 | 0.00 | 0.01 | 0.00 | 91 | 1007.7 |
| 20260830144039 | 71 | 54 | 1.0 | 4.0 | 0.00 | 0.01 | 0.00 | 91 | 1007.7 |
| 20260830143526 | 71 | 64 | 1.0 | 4.0 | 0.00 | 0.01 | 0.00 | 92 | 1007.4 |
| 20260830143027 | 71 | 56 | 1.0 | 3.0 | 0.00 | 0.01 | 0.00 | 92 | 1007.6 |
| 20260830142520 | 70 | 333 | 1.0 | 6.0 | 0.00 | 0.01 | 0.00 | 93 | 1007.6 |
| 20260830142009 | 70 | 90 | 1.0 | 6.0 | 0.00 | 0.01 | 0.00 | 93 | 1007.4 |
| 20260830141957 | 69 | 15 | 1.0 | 4.0 | 0.00 | 0.01 | 0.00 | 94 | 1007.2 |
| 20260830141445 | 69 | 0 | 0.0 | 4.0 | 0.00 | 0.01 | 0.00 | 93 | 1007.3 |
| 20260830140722 | 69 | 60 | 1.0 | 4.0 | 0.00 | 0.02 | 0.00 | 94 | 1007.4 |
| 20260830135957 | 69 | 53 | 0.0 | 3.0 | 0.00 | 0.02 | 0.00 | 94 | 1007.3 |
| 20260830135457 | 69 | 131 | 1.0 | 3.0 | 0.00 | 0.02 | 0.00 | 94 | 1007.3 |
| 20260830134952 | 68 | 132 | 1.0 | 3.0 | 0.00 | 0.02 | 0.00 | 94 | 1007.3 |
| 20260830134449 | 68 | 25 | 1.0 | 5.0 | 0.00 | 0.02 | 0.00 | 94 | 1007.4 |
| 20260830133937 | 68 | 20 | 1.0 | 5.0 | 0.00 | 0.03 | 0.00 | 94 | 1007.2 |
| 20260830133431 | 68 | 47 | 1.0 | 5.0 | 0.00 | 0.03 | 0.00 | 94 | 1007.1 |
| 20260830132932 | 68 | 28 | 1.0 | 5.0 | 0.00 | 0.03 | 0.00 | 94 | 1007.3 |
| 20260830132431 | 68 | 28 | 1.0 | 5.0 | 0.00 | 0.05 | 0.00 | 94 | 1007.4 |
| 20260830131932 | 68 | 30 | 1.0 | 5.0 | 0.00 | 0.08 | 0.00 | 94 | 1007.6 |
| 20260830131429 | 68 | 29 | 1.0 | 5.0 | 0.00 | 0.09 | 0.00 | 94 | 1007.8 |
| 20260830130921 | 68 | 40 | 1.0 | 4.0 | 0.00 | 0.09 | 0.00 | 94 | 1007.7 |
| 20260830130420 | 68 | 57 | 1.0 | 4.0 | 0.00 | 0.09 | 0.00 | 95 | 1007.7 |
| 20260830125919 | 68 | 350 | 0.0 | 2.0 | 0.00 | 0.09 | 0.00 | 95 | 1007.3 |
| 20260830125417 | 68 | 355 | 0.0 | 2.0 | 0.00 | 0.09 | 0.00 | 95 | 1007.2 |
| 20260830124915 | 68 | 343 | 0.0 | 2.0 | 0.00 | 0.09 | 0.00 | 95 | 1007.4 |
| 20260830124412 | 67 | 344 | 0.0 | 2.0 | 0.00 | 0.09 | 0.00 | 95 | 1007.3 |
| 20260830123904 | 67 | 34 | 0.0 | 3.0 | 0.00 | 0.09 | 0.00 | 95 | 1007.7 |
| 20260830123405 | 67 | 35 | 0.0 | 3.0 | 0.00 | 0.09 | 0.00 | 95 | 1007.8 |
| 20260830122904 | 67 | 78 | 0.0 | 2.0 | 0.00 | 0.09 | 0.00 | 95 | 1007.6 |
| 20260830122631 | 67 | 78 | 1.0 | 2.0 | 0.00 | 0.10 | 0.00 | 95 | 1007.6 |
| 20260830121841 | 67 | 78 | 0.0 | 4.0 | 0.00 | 0.11 | 0.00 | 95 | 1007.3 |
| 20260830121339 | 67 | 42 | 0.0 | 4.0 | 0.00 | 0.12 | 0.00 | 95 | 1007.1 |
| 20260830120840 | 67 | 19 | 0.0 | 1.0 | 0.00 | 0.12 | 0.00 | 95 | 1007.0 |
| 20260830120336 | 67 | 19 | 0.0 | 1.0 | 0.00 | 0.13 | 0.00 | 95 | 1007.1 |
| 20260830115811 | 67 | 19 | 0.0 | 2.0 | 0.00 | 0.13 | 0.00 | 95 | 1007.2 |
| 20260830115311 | 67 | 19 | 0.0 | 3.0 | 0.00 | 0.14 | 0.00 | 95 | 1007.1 |
| 20260830115029 | 67 | 22 | 0.0 | 3.0 | 0.00 | 0.15 | 0.00 | 94 | 1006.9 |
| 20260830114534 | 67 | 23 | 0.0 | 2.0 | 0.00 | 0.16 | 0.00 | 94 | 1006.8 |
| 20260830113809 | 67 | 23 | 0.0 | 2.0 | 0.00 | 0.16 | 0.00 | 94 | 1006.9 |
| 20260830113522 | 67 | 24 | 0.0 | 4.0 | 0.00 | 0.17 | 0.00 | 94 | 1006.9 |
| 20260830112759 | 67 | 24 | 1.0 | 4.0 | 0.00 | 0.17 | 0.00 | 94 | 1007.0 |
| 20260830112516 | 67 | 20 | 0.0 | 4.0 | 0.00 | 0.17 | 0.00 | 94 | 1007.2 |
| 20260830111952 | 67 | 19 | 0.0 | 4.0 | 0.00 | 0.17 | 0.00 | 94 | 1007.0 |
| 20260830111235 | 67 | 327 | 0.0 | 3.0 | 0.00 | 0.18 | 0.00 | 94 | 1007.1 |
| 20260830110720 | 67 | 327 | 0.0 | 3.0 | 0.00 | 0.18 | 0.00 | 94 | 1007.1 |
| 20260830110211 | 67 | 327 | 0.0 | 2.0 | 0.00 | 0.19 | 0.00 | 94 | 1007.3 |
| 20260830105701 | 67 | 327 | 0.0 | 2.0 | 0.00 | 0.20 | 0.00 | 94 | 1007.1 |
| 20260830105144 | 67 | 327 | 0.0 | 1.0 | 0.00 | 0.20 | 0.00 | 94 | 1007.1 |
| 20260830104638 | 67 | 327 | 0.0 | 0.0 | 0.00 | 0.21 | 0.00 | 94 | 1007.1 |
| 20260830104113 | 67 | 327 | 0.0 | 1.0 | 0.00 | 0.22 | 0.00 | 94 | 1007.3 |
| 20260830103613 | 67 | 327 | 0.0 | 1.0 | 0.00 | 0.23 | 0.00 | 94 | 1007.4 |
| 20260830103332 | 67 | 326 | 0.0 | 1.0 | 0.00 | 0.23 | 0.00 | 94 | 1007.4 |
| 20260830102611 | 67 | 326 | 0.0 | 1.0 | 0.00 | 0.23 | 0.00 | 94 | 1007.2 |
| 20260830102109 | 67 | 326 | 0.0 | 1.0 | 0.00 | 0.23 | 0.00 | 94 | 1007.2 |
| 20260830101559 | 67 | 326 | 0.0 | 1.0 | 0.00 | 0.23 | 0.00 | 94 | 1007.1 |
| 20260830101314 | 67 | 326 | 0.0 | 1.0 | 0.00 | 0.23 | 0.00 | 94 | 1006.9 |
| 20260830100531 | 67 | 326 | 0.0 | 1.0 | 0.00 | 0.23 | 0.00 | 94 | 1007.0 |
| 20260830100029 | 67 | 326 | 0.0 | 1.0 | 0.00 | 0.23 | 0.00 | 94 | 1007.0 |
| 20260830095505 | 67 | 325 | 0.0 | 1.0 | 0.00 | 0.23 | 0.00 | 94 | 1006.9 |
| 20260830095000 | 67 | 325 | 0.0 | 1.0 | 0.00 | 0.23 | 0.00 | 94 | 1006.7 |
| 20260830094458 | 67 | 327 | 0.0 | 0.0 | 0.00 | 0.23 | 0.00 | 94 | 1006.6 |
| 20260830093945 | 67 | 327 | 0.0 | 0.0 | 0.00 | 0.23 | 0.00 | 94 | 1006.8 |
| 20260830093930 | 67 | 327 | 0.0 | 1.0 | 0.00 | 0.23 | 0.00 | 94 | 1006.9 |
| 20260830092927 | 67 | 327 | 0.0 | 1.0 | 0.00 | 0.23 | 0.00 | 94 | 1006.8 |
| 20260830092423 | 67 | 327 | 0.0 | 1.0 | 0.00 | 0.23 | 0.00 | 94 | 1006.8 |
| 20260830091923 | 67 | 327 | 0.0 | 1.0 | 0.00 | 0.23 | 0.00 | 94 | 1006.8 |
| 20260830091649 | 67 | 327 | 0.0 | 2.0 | 0.00 | 0.23 | 0.00 | 93 | 1006.9 |
| 20260830090913 | 67 | 327 | 0.0 | 2.0 | 0.00 | 0.23 | 0.00 | 93 | 1006.8 |
| 20260830090411 | 67 | 325 | 0.0 | 1.0 | 0.00 | 0.23 | 0.00 | 94 | 1006.8 |
| 20260830090135 | 67 | 325 | 0.0 | 1.0 | 0.00 | 0.23 | 0.00 | 94 | 1006.9 |
| 20260830085631 | 67 | 325 | 0.0 | 1.0 | 0.00 | 0.23 | 0.00 | 94 | 1007.0 |
| 20260830084855 | 67 | 325 | 0.0 | 0.0 | 0.00 | 0.24 | 0.00 | 94 | 1007.0 |
| 20260830084356 | 67 | 325 | 0.0 | 1.0 | 0.00 | 0.24 | 0.00 | 94 | 1007.0 |
| 20260830084104 | 67 | 325 | 0.0 | 1.0 | 0.00 | 0.24 | 0.00 | 94 | 1006.9 |
| 20260830083337 | 67 | 325 | 0.0 | 1.0 | 0.00 | 0.24 | 0.00 | 93 | 1007.0 |
| 20260830082827 | 67 | 325 | 0.0 | 2.0 | 0.00 | 0.24 | 0.00 | 93 | 1007.1 |
| 20260830082542 | 67 | 325 | 0.0 | 2.0 | 0.00 | 0.24 | 0.00 | 93 | 1007.1 |
| 20260830081813 | 67 | 325 | 0.0 | 1.0 | 0.00 | 0.24 | 0.00 | 93 | 1007.2 |
| 20260830081310 | 68 | 325 | 0.0 | 2.0 | 0.00 | 0.24 | 0.00 | 93 | 1007.2 |
| 20260830080757 | 68 | 325 | 0.0 | 2.0 | 0.00 | 0.24 | 0.00 | 93 | 1007.0 |
| 20260830080255 | 68 | 325 | 0.0 | 2.0 | 0.00 | 0.24 | 0.00 | 93 | 1006.9 |
| 20260830075744 | 68 | 325 | 0.0 | 2.0 | 0.00 | 0.24 | 0.00 | 93 | 1007.2 |
| 20260830075244 | 68 | 325 | 0.0 | 1.0 | 0.00 | 0.24 | 0.00 | 93 | 1007.4 |
| 20260830074739 | 68 | 325 | 0.0 | 1.0 | 0.00 | 0.24 | 0.00 | 93 | 1007.4 |
| 20260830074231 | 68 | 325 | 0.0 | 0.0 | 0.00 | 0.24 | 0.00 | 93 | 1007.4 |
| 20260830073950 | 68 | 325 | 0.0 | 1.0 | 0.00 | 0.24 | 0.00 | 93 | 1007.4 |
| 20260830073212 | 68 | 324 | 0.0 | 1.0 | 0.00 | 0.25 | 0.00 | 93 | 1007.4 |
| 20260830072712 | 68 | 325 | 0.0 | 1.0 | 0.00 | 0.26 | 0.00 | 93 | 1007.3 |
| 20260830072658 | 68 | 325 | 0.0 | 1.0 | 0.00 | 0.31 | 0.00 | 93 | 1007.3 |
| 20260830071712 | 68 | 325 | 0.0 | 2.0 | 0.00 | 0.31 | 0.00 | 93 | 1007.4 |
| 20260830071201 | 68 | 325 | 0.0 | 2.0 | 0.00 | 0.31 | 0.00 | 92 | 1007.7 |
| 20260830070857 | 68 | 325 | 0.0 | 2.0 | 0.00 | 0.31 | 0.00 | 92 | 1007.6 |
| 20260830070136 | 68 | 324 | 0.0 | 2.0 | 0.00 | 0.31 | 0.00 | 92 | 1007.4 |
| 20260830065613 | 68 | 324 | 0.0 | 2.0 | 0.00 | 0.31 | 0.00 | 92 | 1007.4 |
| 20260830065058 | 68 | 324 | 0.0 | 2.0 | 0.00 | 0.31 | 0.00 | 92 | 1007.6 |
| 20260830064557 | 69 | 306 | 0.0 | 2.0 | 0.00 | 0.31 | 0.00 | 92 | 1007.6 |
| 20260830064050 | 69 | 306 | 0.0 | 2.0 | 0.00 | 0.31 | 0.00 | 92 | 1007.7 |
| 20260830064025 | 69 | 304 | 0.0 | 1.0 | 0.00 | 0.31 | 0.00 | 92 | 1007.7 |
| 20260830063019 | 69 | 304 | 0.0 | 1.0 | 0.00 | 0.31 | 0.00 | 92 | 1007.7 |
| 20260830062509 | 69 | 304 | 0.0 | 1.0 | 0.00 | 0.31 | 0.00 | 92 | 1007.7 |
| 20260830061948 | 69 | 305 | 0.0 | 2.0 | 0.00 | 0.31 | 0.00 | 92 | 1007.8 |
| 20260830061435 | 69 | 305 | 0.0 | 2.0 | 0.00 | 0.31 | 0.00 | 92 | 1007.9 |
| 20260830060933 | 69 | 305 | 0.0 | 2.0 | 0.00 | 0.31 | 0.00 | 92 | 1007.9 |
| 20260830060430 | 69 | 305 | 0.0 | 2.0 | 0.00 | 0.31 | 0.00 | 91 | 1008.0 |
| 20260830055926 | 69 | 305 | 0.0 | 2.0 | 0.00 | 0.31 | 0.00 | 91 | 1008.0 |
| 20260830055414 | 69 | 304 | 0.0 | 2.0 | 0.00 | 0.31 | 0.00 | 91 | 1008.1 |
| 20260830054859 | 69 | 304 | 0.0 | 2.0 | 0.00 | 0.31 | 0.00 | 91 | 1008.0 |
| 20260830054353 | 69 | 304 | 0.0 | 1.0 | 0.00 | 0.31 | 0.00 | 91 | 1008.1 |
| 20260830054111 | 69 | 304 | 0.0 | 2.0 | 0.00 | 0.31 | 0.00 | 91 | 1008.0 |
| 20260830053336 | 69 | 304 | 0.0 | 2.0 | 0.00 | 0.31 | 0.00 | 91 | 1008.1 |
| 20260830052826 | 69 | 304 | 0.0 | 1.0 | 0.00 | 0.31 | 0.00 | 91 | 1008.0 |
| 20260830052544 | 69 | 304 | 0.0 | 1.0 | 0.00 | 0.31 | 0.00 | 91 | 1008.1 |
| 20260830051811 | 69 | 304 | 0.0 | 1.0 | 0.00 | 0.31 | 0.00 | 91 | 1008.1 |
| 20260830051233 | 69 | 304 | 0.0 | 1.0 | 0.00 | 0.31 | 0.00 | 91 | 1008.1 |
| 20260830050732 | 69 | 304 | 0.0 | 1.0 | 0.00 | 0.31 | 0.00 | 91 | 1008.3 |
| 20260830050223 | 69 | 304 | 0.0 | 1.0 | 0.00 | 0.31 | 0.00 | 90 | 1008.2 |
| 20260830045714 | 70 | 304 | 0.0 | 1.0 | 0.00 | 0.31 | 0.31 | 90 | 1008.2 |
| 20260830045211 | 70 | 304 | 0.0 | 1.0 | 0.00 | 0.31 | 0.31 | 90 | 1008.3 |
| 20260830044713 | 70 | 304 | 0.0 | 1.0 | 0.00 | 0.31 | 0.31 | 90 | 1008.3 |
| 20260830044412 | 70 | 304 | 0.0 | 1.0 | 0.00 | 0.31 | 0.31 | 90 | 1008.4 |
| 20260830043648 | 70 | 304 | 0.0 | 1.0 | 0.00 | 0.31 | 0.31 | 90 | 1008.3 |
| 20260830043142 | 70 | 304 | 0.0 | 1.0 | 0.00 | 0.31 | 0.31 | 90 | 1008.3 |
| 20260830042626 | 70 | 304 | 0.0 | 1.0 | 0.00 | 0.31 | 0.31 | 90 | 1008.3 |